Le nostre stazioni meteo in Italia

Pubblicità
Il mio iltempo24.it
Concordia Sagittaria, Italia (16107): Temperatura & dewpoint: 17.07.2019 06:00:00 - 23.07.2019 06:00:00 (CEST)Concordia Sagittaria, Italia (16107): velocità del vento: 17.07.2019 06:00:00 - 23.07.2019 06:00:00 (CEST)Concordia Sagittaria, Italia (16107): direzione del vento: 17.07.2019 06:00:00 - 23.07.2019 06:00:00 (CEST)Concordia Sagittaria, Italia (16107): reduced air pressure: 17.07.2019 06:00:00 - 23.07.2019 06:00:00 (CEST)
Data & Tempo tt [°C] td [°C] ff [km/h] ff [kn] dd ppp [hPa]
23.07.2019 06:00:00 - - - - - -
23.07.2019 05:00:00 20,4 18,6 4 2 NNE 1024,1
23.07.2019 04:00:00 20,7 18,9 4 2 N 1024,3
23.07.2019 03:00:00 20,7 18,9 4 2 NO 1024,5
23.07.2019 02:00:00 20,7 18,9 0 0 N 1024,7
23.07.2019 01:00:00 21,0 18,7 0 0 N 1024,9
23.07.2019 00:00:00 21,9 18,6 0 0 N 1024,7
22.07.2019 23:00:00 22,7 18,2 0 0 N 1024,5
22.07.2019 22:00:00 23,9 17,3 0 0 N 1024,3
22.07.2019 21:00:00 26,2 18,0 4 2 OSO 1024,0
22.07.2019 20:00:00 30,0 17,8 4 2 SO 1023,8
22.07.2019 19:00:00 32,1 16,0 4 2 OSO 1023,6
22.07.2019 18:00:00 32,7 16,5 5 3 SO 1023,9
22.07.2019 17:00:00 32,8 17,8 4 2 SSO 1024,3
22.07.2019 16:00:00 33,1 18,5 0 0 N 1024,5
22.07.2019 15:00:00 32,9 18,7 5 3 S 1024,9
22.07.2019 14:00:00 32,3 19,2 2 1 SE 1025,4
22.07.2019 13:00:00 32,1 21,0 5 3 NNE 1025,5
22.07.2019 12:00:00 30,7 21,5 9 5 NNE 1025,8
22.07.2019 11:00:00 29,1 21,3 5 3 N 1025,9
22.07.2019 10:00:00 27,5 21,5 9 5 N 1026,1
22.07.2019 09:00:00 26,0 20,5 16 9 N 1026,1
22.07.2019 08:00:00 24,1 20,8 9 5 N 1025,9
22.07.2019 07:00:00 21,5 19,7 9 5 N 1025,8
22.07.2019 06:00:00 20,6 18,8 4 2 NO 1025,7
22.07.2019 05:00:00 21,0 19,2 5 3 NNO 1025,4
22.07.2019 04:00:00 21,1 19,3 5 3 N 1025,4
22.07.2019 03:00:00 22,0 20,0 5 3 NO 1025,4
22.07.2019 02:00:00 22,7 20,4 5 3 NNO 1025,3
22.07.2019 01:00:00 23,0 21,2 2 1 NO 1025,8
22.07.2019 00:00:00 23,6 21,8 8 4 NNO 1025,5
21.07.2019 23:00:00 24,4 22,6 0 0 N 1025,2
21.07.2019 22:00:00 25,1 22,7 4 2 E 1024,4
21.07.2019 21:00:00 26,5 21,6 4 2 S 1023,7
21.07.2019 20:00:00 28,6 22,8 0 0 N 1022,8
21.07.2019 19:00:00 29,2 22,1 5 3 E 1022,7
21.07.2019 18:00:00 29,3 21,7 4 2 SE 1022,6
21.07.2019 17:00:00 29,4 22,8 8 4 ESE 1023,0
21.07.2019 16:00:00 28,6 22,1 11 6 SE 1022,7
21.07.2019 15:00:00 30,2 24,1 11 6 E 1022,9
21.07.2019 14:00:00 29,6 23,7 2 1 ENE 1023,1
21.07.2019 13:00:00 29,5 23,2 4 2 S 1023,4
21.07.2019 12:00:00 28,4 22,6 2 1 SSO 1023,5
21.07.2019 11:00:00 27,3 22,9 8 4 SE 1023,5
21.07.2019 10:00:00 26,5 22,7 4 2 E 1023,5
21.07.2019 09:00:00 25,0 22,2 5 3 NNE 1023,5
21.07.2019 08:00:00 22,6 20,8 5 3 N 1023,6
21.07.2019 07:00:00 21,3 19,5 0 0 N 1023,1
21.07.2019 06:00:00 20,8 19,0 5 3 E 1022,7
21.07.2019 05:00:00 21,7 19,9 4 2 NE 1022,8
21.07.2019 04:00:00 21,5 19,7 0 0 N 1022,9
21.07.2019 03:00:00 21,6 19,8 0 0 N 1023,3
21.07.2019 02:00:00 21,9 20,1 4 2 ENE 1023,8
21.07.2019 01:00:00 22,4 20,6 4 2 N 1023,7
21.07.2019 00:00:00 22,7 20,9 4 2 N 1023,4
20.07.2019 23:00:00 22,5 20,7 0 0 N 1022,6
20.07.2019 22:00:00 23,4 21,1 0 0 N 1022,8
20.07.2019 21:00:00 24,9 21,8 4 2 ESE 1021,7
20.07.2019 20:00:00 26,3 20,6 8 4 SSE 1021,3
20.07.2019 19:00:00 27,6 19,1 18 10 ESE 1021,1
20.07.2019 18:00:00 28,4 19,6 9 5 SSE 1021,4
20.07.2019 17:00:00 28,7 19,6 8 4 SSE 1021,6
20.07.2019 16:00:00 29,0 18,1 11 6 SSE 1021,9
20.07.2019 15:00:00 29,4 19,4 11 6 ESE 1022,1
20.07.2019 14:00:00 29,2 19,5 15 8 SE 1022,4
20.07.2019 13:00:00 29,0 20,1 8 4 S 1022,4
20.07.2019 12:00:00 28,5 21,0 13 7 SE 1022,4
20.07.2019 11:00:00 27,2 21,9 5 3 SE 1022,3
20.07.2019 10:00:00 26,1 21,9 4 2 S 1022,4
20.07.2019 09:00:00 24,1 20,2 0 0 N 1022,4
20.07.2019 08:00:00 22,1 20,3 5 3 NE 1021,9
20.07.2019 07:00:00 19,1 17,4 4 2 N 1021,8
20.07.2019 06:00:00 18,5 16,8 5 3 N 1021,6
20.07.2019 05:00:00 18,8 17,1 4 2 NNO 1021,5
20.07.2019 04:00:00 18,5 16,8 0 0 N 1021,5
20.07.2019 03:00:00 18,8 17,1 2 1 E 1021,7
20.07.2019 02:00:00 19,5 17,8 0 0 N 1021,8
20.07.2019 01:00:00 20,1 18,3 4 2 N 1021,8
20.07.2019 00:00:00 20,3 18,5 4 2 N 1021,7
19.07.2019 23:00:00 20,3 18,0 4 2 E 1021,1
19.07.2019 22:00:00 21,8 18,5 4 2 SE 1020,4
19.07.2019 21:00:00 23,7 18,3 8 4 SE 1019,7
19.07.2019 20:00:00 26,1 17,7 11 6 SE 1019,6
19.07.2019 19:00:00 28,2 16,1 9 5 SSE 1019,4
19.07.2019 18:00:00 28,5 16,4 11 6 SE 1019,3
19.07.2019 17:00:00 29,2 16,3 15 8 SSE 1019,4
19.07.2019 16:00:00 29,4 17,5 11 6 SSO 1019,6
19.07.2019 15:00:00 29,7 19,4 18 10 SE 1019,7
19.07.2019 14:00:00 29,2 19,2 13 7 SE 1019,9
19.07.2019 13:00:00 28,7 19,6 5 3 ESE 1020,1
19.07.2019 12:00:00 28,4 20,4 8 4 NNO 1020,2
19.07.2019 11:00:00 26,9 19,2 4 2 NNE 1020,2
19.07.2019 10:00:00 25,1 19,2 5 3 N 1020,1
19.07.2019 09:00:00 22,9 18,2 8 4 N 1020,1
19.07.2019 08:00:00 20,3 18,5 4 2 N 1019,9
19.07.2019 07:00:00 18,1 16,4 4 2 NNO 1019,6
19.07.2019 06:00:00 16,6 14,9 0 0 N 1019,6
19.07.2019 05:00:00 17,2 15,5 4 2 O 1019,5
19.07.2019 04:00:00 17,1 15,4 0 0 N 1019,5
19.07.2019 03:00:00 17,6 15,9 0 0 N 1019,3
19.07.2019 02:00:00 18,2 16,5 5 3 NNE 1019,1
19.07.2019 01:00:00 - - - - - -
19.07.2019 00:00:00 - - - - - -
18.07.2019 23:00:00 20,0 17,1 5 3 NNE 1018,6
18.07.2019 22:00:00 - - - - - -
18.07.2019 21:00:00 - - - - - -
18.07.2019 20:00:00 25,8 17,6 9 5 E 1016,5
18.07.2019 19:00:00 26,6 18,1 0 0 N 1016,3
18.07.2019 18:00:00 26,9 17,0 4 2 S 1016,0
18.07.2019 17:00:00 26,4 19,0 8 4 S 1016,1
18.07.2019 16:00:00 27,8 16,4 8 4 SSE 1016,4
18.07.2019 15:00:00 25,3 17,4 5 3 S 1016,8
18.07.2019 14:00:00 25,4 16,5 16 9 S 1016,6
18.07.2019 13:00:00 28,0 17,8 9 5 OSO 1016,6
18.07.2019 12:00:00 26,3 17,3 4 2 NO 1016,4
18.07.2019 11:00:00 25,6 18,7 0 0 N 1016,3
18.07.2019 10:00:00 24,2 18,5 4 2 N 1016,3
18.07.2019 09:00:00 22,2 19,1 11 6 NNE 1016,2
18.07.2019 08:00:00 19,8 18,1 9 5 N 1016,2
18.07.2019 07:00:00 19,3 17,6 4 2 N 1016,0
18.07.2019 06:00:00 19,4 17,7 4 2 N 1015,9
18.07.2019 05:00:00 20,0 18,2 4 2 NE 1015,6
18.07.2019 04:00:00 20,1 18,3 11 6 N 1015,8
18.07.2019 03:00:00 20,2 18,4 15 8 NNE 1015,9
18.07.2019 02:00:00 20,6 18,8 15 8 NNO 1016,6
18.07.2019 01:00:00 22,3 19,4 9 5 NNE 1016,2
18.07.2019 00:00:00 21,4 19,6 9 5 NNE 1016,1
17.07.2019 23:00:00 21,1 18,8 5 3 N 1015,6
17.07.2019 22:00:00 22,1 19,0 8 4 NNO 1015,4
17.07.2019 21:00:00 23,2 18,2 4 2 SE 1015,1
17.07.2019 20:00:00 24,5 18,1 5 3 SE 1015,1
17.07.2019 19:00:00 25,8 17,9 13 7 SE 1015,0
17.07.2019 18:00:00 27,3 18,8 9 5 SSE 1015,2
17.07.2019 17:00:00 28,3 17,5 16 9 SSE 1015,4
17.07.2019 16:00:00 28,6 17,7 13 7 S 1015,7
17.07.2019 15:00:00 29,3 17,4 8 4 SSE 1015,9
17.07.2019 14:00:00 28,7 17,2 13 7 SSE 1016,4
17.07.2019 13:00:00 28,2 18,0 13 7 SSE 1016,8
17.07.2019 12:00:00 27,0 18,8 8 4 S 1017,1
17.07.2019 11:00:00 25,6 18,7 4 2 S 1017,6
17.07.2019 10:00:00 24,5 18,8 0 0 N 1017,8
17.07.2019 09:00:00 22,1 19,0 2 1 NE 1018,0
17.07.2019 08:00:00 19,8 17,9 4 2 N 1018,1
17.07.2019 07:00:00 17,3 15,6 5 3 N 1017,9
17.07.2019 06:00:00 16,0 14,3 5 3 N 1017,8

tt = Temperatura
td = dewpoint
ff = velocità del vento
dd = direzione del vento
ppp = reduced air pressure

Stazioni seguenti

WeatherPro
AMSI
MeteoEarth